New Cumberland, PA

11:18 PM EST on February 27, 2017 (GMT -0500)
Capital City

Weather History for KCXY - October, 2012

Change the Weather History Date:

Thursday, October 11, 2012

  Actual Average Record
Temperature  
Mean Temperature 52 °F -  
Max Temperature 60 °F 64 °F 86 °F (1949)
Min Temperature 43 °F 44 °F 31 °F (1993)
Degree Days  
Heating Degree Days 14    
Growing Degree Days 2 (Base 50)    
Moisture  
Dew Point 32 °F    
Average Humidity 50    
Maximum Humidity 80    
Minimum Humidity 33    
Precipitation  
Precipitation 0.00 in - - ()
Sea Level Pressure  
Sea Level Pressure 30.19 in    
Wind  
Wind Speed 7 mph (West)    
Max Wind Speed 10 mph    
Max Gust Speed 21 mph    
Visibility 10 miles    
Events      
Averages and records for this station are not official NWS values.
T = Trace of Precipitation, MM = Missing Value Source: NWS Daily Summary

Daily Weather History Graph

Daily Weather History Graph

Search for Another Location

Airport or City:

Trip Planner

Search our weather history database for the weather conditions in past years. The results will help you decide how hot, cold, wet, or windy it might be!

Date:

Astronomy

Oct. 11, 2012 Rise Set
Actual Time 7:14 AM EDT 6:32 PM EDT
Civil Twilight 6:47 AM EDT 7:00 PM EDT
Nautical Twilight 6:15 AM EDT 7:31 PM EDT
Astronomical Twilight 5:44 AM EDT 8:03 PM EDT
Moon 2:50 AM EDT (10/11) 4:08 PM EDT (10/11)
Length of Visible Light 12h 13m
Length of Day
11h 18m
Waning Crescent, 18% of the Moon is Illuminated
Oct 11
Waning Crescent
Oct 15
New
Oct 21
First Quarter
Oct 29
Full
Nov 6
Last Quarter

Hourly Weather History & Observations

Time (EDT) Temp. Windchill Dew Point Humidity Pressure Visibility Wind Dir Wind Speed Gust Speed Precip Events Conditions
12:56 AM 46.0 °F 41.9 °F 35.1 °F 66% 30.09 in 10.0 mi West 8.1 mph - N/A   Clear
1:56 AM 50.0 °F - 32.0 °F 50% 30.11 in 10.0 mi West 9.2 mph - N/A   Partly Cloudy
2:56 AM 50.0 °F - 33.1 °F 52% 30.12 in 10.0 mi West 4.6 mph - N/A   Overcast
3:56 AM 48.9 °F - 32.0 °F 52% 30.15 in 10.0 mi West 9.2 mph 20.7 mph N/A   Scattered Clouds
4:56 AM 46.9 °F - 30.9 °F 54% 30.17 in 10.0 mi WNW 4.6 mph - N/A   Scattered Clouds
5:56 AM 44.1 °F 40.8 °F 33.1 °F 65% 30.20 in 10.0 mi West 5.8 mph - N/A   Partly Cloudy
6:56 AM 43.0 °F 40.3 °F 32.0 °F 65% 30.23 in 10.0 mi WSW 4.6 mph - N/A   Clear
8:56 AM 48.0 °F - 30.9 °F 52% 30.27 in 10.0 mi WNW 10.4 mph - N/A   Clear
9:56 AM 50.0 °F - 30.0 °F 46% 30.28 in 10.0 mi NW 10.4 mph - N/A   Clear
10:56 AM 51.1 °F - 28.9 °F 43% 30.27 in 10.0 mi North 8.1 mph - N/A   Clear
11:56 AM 53.1 °F - 28.0 °F 38% 30.27 in 10.0 mi North 8.1 mph - N/A   Clear
12:56 PM 55.0 °F - 28.9 °F 37% 30.25 in 10.0 mi North 8.1 mph 16.1 mph N/A   Clear
1:56 PM 57.0 °F - 30.9 °F 37% 30.22 in 10.0 mi West 8.1 mph 16.1 mph N/A   Clear
2:56 PM 57.9 °F - 30.9 °F 36% 30.20 in 10.0 mi WSW 6.9 mph - N/A   Clear
3:56 PM 59.0 °F - 30.0 °F 33% 30.18 in 10.0 mi Variable 3.5 mph - N/A   Clear
4:56 PM 60.1 °F - 32.0 °F 35% 30.17 in 10.0 mi Variable 5.8 mph - N/A   Clear
5:56 PM 57.0 °F - 33.1 °F 40% 30.17 in 10.0 mi SSW 6.9 mph - N/A   Clear
7:56 PM 53.1 °F - 34.0 °F 48% 30.18 in 10.0 mi South 3.5 mph - N/A   Clear
9:56 PM 51.1 °F - 35.1 °F 54% 30.17 in 10.0 mi Calm Calm - N/A   Clear
10:56 PM 48.0 °F - 37.9 °F 68% 30.17 in 10.0 mi Calm Calm - N/A   Clear
11:56 PM 43.0 °F 41.3 °F 37.0 °F 80% 30.18 in 10.0 mi SW 3.5 mph - N/A   Clear